Regional Weather Roundup
Issued by NWS Sterling, VA

Home | Current Version | Previous Version | Text Only | Print | Product List | Glossary Off
Versions: 1 2 3 4 5 6 7 8 9 10 11 12 13 14 15 16 17 18 19 20 21 22 23 24 25 26 27

000
ASUS41 KLWX 011611
RWRLWX

REGIONAL WEATHER ROUNDUP
NATIONAL WEATHER SERVICE BALTIMORE MD/WASHINGTON DC
1200 PM EDT SUN MAY 01 2016

Note: "FAIR" indicates few or no clouds below 12,000 feet
with no significant weather and/or obstructions to visibility.
 TC=TEMPERATURE CELSIUS

 * =Non NWS site. Station does not report precipitation (e.g. rain,
    snow, etc.), thunder, or fog.

DCZ001-MDZ009-015-VAZ040>042-051-053>054-011700-
WASHINGTON METRO

CITY           SKY/WX    TMP DP  RH WIND       PRES   REMARKS
WASHINGTON NAT LGT RAIN  56  53  90 SE9       30.08F
DULLES         LGT RAIN  55  53  93 S12       30.06F
ANDREWS AFB    LGT RAIN  54  54 100 SE14      30.07F
FT BELVOIR     LGT RAIN  55  53  93 SE10      30.08F
QUANTICO       LGT RAIN  56  53  90 S15       30.08F
COLLEGE PARK*  CLOUDY    54  52  94 SE9       30.07F
LEESBURG*      CLOUDY    55  55 100 S6        30.08R
MANASSAS*      CLOUDY    55  55 100 SE12      30.06F FOG
GAITHERSBURG*  CLOUDY    54  52  94 SE9       30.10F

$$

MDZ006>007-011-014-011700-
BALTIMORE METRO

CITY           SKY/WX    TMP DP  RH WIND       PRES   REMARKS
BWI AIRPORT    CLOUDY    52  51  97 SE8       30.09F
MD SCIENCE CTR   N/A     52  50  93 MISG      30.11F
MARTIN STATE   LGT RAIN  54  54 100 E10       30.12F
ANNAPOLIS      LGT RAIN  52  51  97 SE14      30.09F FOG
FORT MEADE*    CLOUDY    52  50  93 SE9       30.11F

$$

MDZ012-015-019>023-011700-
MARYLAND EASTERN SHORE

CITY           SKY/WX    TMP DP  RH WIND       PRES   REMARKS
OCEAN CITY     CLOUDY    53  51  93 SE7       30.13F
SALISBURY      CLOUDY    54  52  93 E10       30.11F
CAMBRIDGE*     CLOUDY    52  50  93 W3        30.12R
EASTON*        CLOUDY   N/A N/A N/A E5          N/A  FOG

$$

MDZ017>025-011700-
SOUTHERN MARYLAND

CITY           SKY/WX    TMP DP  RH WIND       PRES   REMARKS
PATUXENT RIVER RAIN      54  51  90 SE6       30.12R FOG
ST INIGOES       N/A    N/A N/A N/A MISG        N/A
LEONARDTOWN*   CLOUDY    54  52  94 E3        30.12F

$$

MDZ003>005-011700-
NORTH CENTRAL MARYLAND

CITY           SKY/WX    TMP DP  RH WIND       PRES   REMARKS
FREDERICK*     CLOUDY    54  54 100 S8        30.10F
HAGERSTOWN APT CLOUDY    56  52  86 S10       30.05R
WESTMINSTER*   DRIZZLE   52  48  87 SE7       30.06F

$$

MDZ501>502-011700-
WESTERN MARYLAND

CITY           SKY/WX    TMP DP  RH WIND       PRES   REMARKS
OAKLAND*       CLOUDY    55  54  94 W8        30.02S
CUMBERLAND*    CLOUDY    61  55  82 SE5       30.04F

$$

VAZ025>031-011700-
SHENANDOAH VALLEY

CITY           SKY/WX    TMP DP  RH WIND       PRES   REMARKS
WINCHESTER*    CLOUDY    59  54  82 SE8       30.03S
FRONT ROYAL*   PTSUNNY   61  55  82 SE5       30.02S
LURAY*         FAIR      63  59  88 SW9       30.02S
NEW MARKET*    CLOUDY    63  58  82 S9        30.00F
STAUNTON*      PTSUNNY   66  60  82 S7        30.05F
WAYNESBORO*    FAIR      62  56  82 MISG      30.03S

$$

WVZ021-048>050-054>055-011700-
EASTERN WEST VIRGINIA PANHANDLE

CITY           SKY/WX    TMP DP  RH WIND       PRES   REMARKS
MARTINSBURG    CLOUDY    58  54  86 S8        30.03F
PETERSBURG*    FAIR      69  59  71 CALM      29.99S

$$

VAZ036>039-050-011700-
CENTRAL FOOTHILLS

CITY           SKY/WX    TMP DP  RH WIND       PRES   REMARKS
CHARLOTTESVILL CLOUDY    57  53  86 S6        30.06F
CULPEPER*      CLOUDY    56  55  94 S5        30.08S
ORANGE*        CLOUDY    59  57  94 SW6       30.09R
GORDONSVILLE*  CLOUDY    56  54  91 SW5       30.07S
WARRENTON*     CLOUDY    56  51  81 S6        30.07R

$$

VAZ055>057-011700-
NORTH AND CENTRAL PIEDMONT

CITY           SKY/WX    TMP DP  RH WIND       PRES   REMARKS
FREDERICKSBRG* LGT RAIN  55  55 100 SE7       30.07F
STAFFORD*      LGT RAIN  55  53  94 SE7       30.11F

$$

NCZ024-NYZ072-PAZ021-071-VAZ022-071-011700-
OTHER REGIONAL OBSERVATIONS

CITY           SKY/WX    TMP DP  RH WIND       PRES   REMARKS
NEW YORK CITY  LGT RAIN  47  43  86 VRB6      30.21F FOG
PHILADELPHIA   RAIN      50  46  86 E7        30.15F FOG
PITTSBURGH     CLOUDY    64  59  83 W8        29.96R
ROANOKE        CLOUDY    61  58  90 VRB5      30.08F
RICHMOND       RAIN      56  55  97 VRB5      30.11R FOG
RALEIGH        LGT RAIN  66  64  93 S9G16     30.09F

$$

ANZ530>537-011700-
MARINE OBSERVATIONS

STATION/POSITION TIME  TEMP    WIND        PRES
                       AIR SEA DIR/SP/G
                 (UTC) (F)     (DEG/KT/KT) (MB)
THOMAS PT LIGHT  1600   51 57  140/ 13/ 14 1020.6F
BALT KEY BRIDGE  1500   52     120/ 11/ 15 1019.6F
COVE POINT       1500   53     150/  9/ 14 1019.9F
LEWISETTA        1500   56 59  140/  9/ 10 1018.8F
SOLOMONS ISLAND  1500   54 58  110/ 10/ 12   N/A
PINEY POINT      1506          150/ 14/ 15   N/A

$$





USA.gov is the U.S. government's official web portal to all federal, state and local government web resources and services.